| time (UTC) | temp F | wind direction | speed knots | gust knots | rain 1hr in | rain 24hr in | rain mn in | humidity % | barometer mb |
| 20260506171216 | 64 | 289 | 0.9 | 5.2 | 0.00 | 0.00 | 0.00 | 83 | 1015.2 |
| 20260506170713 | 64 | 284 | 1.7 | 3.5 | 0.00 | 0.00 | 0.00 | 84 | 1015.2 |
| 20260506170210 | 64 | 290 | 1.7 | 3.5 | 0.00 | 0.00 | 0.00 | 84 | 1015.2 |
| 20260506165708 | 64 | 266 | 2.6 | 5.2 | 0.00 | 0.00 | 0.00 | 83 | 1015.3 |
| 20260506165205 | 65 | 243 | 1.7 | 8.7 | 0.00 | 0.00 | 0.00 | 83 | 1015.3 |
| 20260506164702 | 65 | 329 | 1.7 | 2.6 | 0.00 | 0.00 | 0.00 | 84 | 1015.1 |
| 20260506164159 | 64 | 355 | 0.9 | 2.6 | 0.00 | 0.00 | 0.00 | 84 | 1015.2 |
| 20260506163655 | 64 | 74 | 3.5 | 5.2 | 0.00 | 0.00 | 0.00 | 84 | 1014.9 |
| 20260506163150 | 65 | 306 | 1.7 | 2.6 | 0.00 | 0.00 | 0.00 | 83 | 1014.8 |
| 20260506162647 | 65 | 78 | 1.7 | 4.3 | 0.00 | 0.00 | 0.00 | 82 | 1014.6 |
| 20260506162144 | 65 | 279 | 1.7 | 5.2 | 0.00 | 0.00 | 0.00 | 82 | 1014.6 |
| 20260506161641 | 66 | 186 | 2.6 | 5.2 | 0.00 | 0.00 | 0.00 | 82 | 1014.3 |
| 20260506161138 | 65 | 12 | 1.7 | 3.5 | 0.00 | 0.00 | 0.00 | 83 | 1014.1 |
| 20260506160636 | 65 | 1 | 2.6 | 5.2 | 0.00 | 0.00 | 0.00 | 82 | 1014.1 |
| 20260506160132 | 66 | 356 | 2.6 | 2.6 | 0.00 | 0.00 | 0.00 | 83 | 1013.8 |
| 20260506155631 | 66 | 256 | 0.9 | 2.6 | 0.00 | 0.00 | 0.00 | 82 | 1013.7 |
| 20260506155128 | 65 | 330 | 0.9 | 3.5 | 0.00 | 0.00 | 0.00 | 83 | 1013.7 |
| 20260506153230 | 66 | 349 | 3.5 | 4.3 | 0.00 | 0.00 | 0.00 | 82 | 1013.6 |
| 20260506152727 | 66 | 269 | 0.0 | 3.5 | 0.00 | 0.00 | 0.00 | 82 | 1013.8 |
| 20260506152224 | 67 | 61 | 2.6 | 5.2 | 0.00 | 0.00 | 0.00 | 82 | 1013.6 |
| 20260506151723 | 67 | 212 | 2.6 | 3.5 | 0.00 | 0.00 | 0.00 | 81 | 1013.8 |
| 20260506151219 | 67 | 348 | 0.0 | 3.5 | 0.00 | 0.00 | 0.00 | 82 | 1013.2 |
| 20260506150716 | 67 | 46 | 2.6 | 4.3 | 0.00 | 0.00 | 0.00 | 82 | 1013.1 |
| 20260506150213 | 66 | 70 | 1.7 | 4.3 | 0.00 | 0.00 | 0.00 | 83 | 1013.0 |
| 20260506145710 | 66 | 343 | 0.0 | 3.5 | 0.00 | 0.00 | 0.00 | 83 | 1013.0 |
| 20260506145206 | 65 | 293 | 1.7 | 4.3 | 0.00 | 0.00 | 0.00 | 84 | 1012.9 |
| 20260506144704 | 65 | 308 | 0.0 | 3.5 | 0.00 | 0.00 | 0.00 | 84 | 1012.8 |
| 20260506144201 | 65 | 266 | 1.7 | 1.7 | 0.00 | 0.00 | 0.00 | 85 | 1012.7 |
| 20260506143658 | 65 | 50 | 3.5 | 4.3 | 0.00 | 0.00 | 0.00 | 87 | 1012.9 |
| 20260506143156 | 65 | 359 | 3.5 | 3.5 | 0.00 | 0.00 | 0.00 | 87 | 1013.0 |
| 20260506142654 | 65 | 265 | 1.7 | 4.3 | 0.00 | 0.00 | 0.00 | 86 | 1012.9 |
| 20260506142152 | 65 | 49 | 2.6 | 2.6 | 0.00 | 0.00 | 0.00 | 87 | 1013.0 |
| 20260506141649 | 65 | 167 | 0.0 | 1.7 | 0.00 | 0.00 | 0.00 | 87 | 1012.9 |
| 20260506141148 | 65 | 308 | 0.9 | 3.5 | 0.00 | 0.00 | 0.00 | 87 | 1012.6 |
| 20260506140644 | 65 | 243 | 0.0 | 4.3 | 0.00 | 0.00 | 0.00 | 87 | 1013.0 |
| 20260506140142 | 65 | 42 | 1.7 | 6.1 | 0.00 | 0.00 | 0.00 | 87 | 1012.8 |
| 20260506135639 | 65 | 17 | 2.6 | 5.2 | 0.00 | 0.00 | 0.00 | 87 | 1012.5 |
| 20260506135135 | 65 | 251 | 2.6 | 6.1 | 0.00 | 0.00 | 0.00 | 86 | 1012.7 |
| 20260506134632 | 66 | 32 | 1.7 | 4.3 | 0.00 | 0.00 | 0.00 | 87 | 1012.5 |
| 20260506134127 | 65 | 29 | 1.7 | 3.5 | 0.00 | 0.00 | 0.00 | 87 | 1012.6 |
| 20260506133625 | 66 | 85 | 0.0 | 5.2 | 0.00 | 0.00 | 0.00 | 86 | 1012.5 |
| 20260506133122 | 66 | 278 | 1.7 | 3.5 | 0.00 | 0.00 | 0.00 | 87 | 1012.4 |
| 20260506132619 | 66 | 257 | 1.7 | 3.5 | 0.00 | 0.00 | 0.00 | 86 | 1012.2 |
| 20260506132116 | 66 | 345 | 4.3 | 4.3 | 0.00 | 0.00 | 0.00 | 86 | 1012.2 |
| 20260506131613 | 66 | 135 | 0.0 | 5.2 | 0.00 | 0.00 | 0.00 | 86 | 1012.2 |
| 20260506131109 | 67 | 146 | 0.9 | 2.6 | 0.00 | 0.00 | 0.00 | 88 | 1012.0 |
| 20260506130607 | 67 | 359 | 1.7 | 2.6 | 0.00 | 0.00 | 0.00 | 88 | 1011.8 |
| 20260506130104 | 67 | 321 | 1.7 | 1.7 | 0.00 | 0.00 | 0.00 | 88 | 1011.7 |
| 20260506125602 | 67 | 238 | 0.9 | 3.5 | 0.00 | 0.00 | 0.00 | 88 | 1011.7 |
| 20260506125100 | 67 | 213 | 1.7 | 3.5 | 0.00 | 0.00 | 0.00 | 88 | 1011.8 |
| 20260506124557 | 67 | 58 | 0.9 | 4.3 | 0.00 | 0.00 | 0.00 | 89 | 1011.5 |
| 20260506124055 | 68 | 300 | 1.7 | 5.2 | 0.00 | 0.00 | 0.00 | 88 | 1011.7 |
| 20260506123552 | 69 | 219 | 3.5 | 3.5 | 0.00 | 0.00 | 0.00 | 88 | 1011.4 |
| 20260506123051 | 70 | 219 | 1.7 | 2.6 | 0.00 | 0.00 | 0.00 | 87 | 1011.5 |
| 20260506122547 | 71 | 83 | 0.0 | 4.3 | 0.00 | 0.00 | 0.00 | 87 | 1011.4 |
| 20260506122045 | 72 | 71 | 1.7 | 3.5 | 0.00 | 0.00 | 0.00 | 87 | 1011.3 |
| 20260506121542 | 73 | 253 | 3.5 | 3.5 | 0.00 | 0.00 | 0.00 | 87 | 1011.0 |
| 20260506121038 | 73 | 7 | 1.7 | 3.5 | 0.00 | 0.00 | 0.00 | 86 | 1011.0 |
| 20260506120536 | 74 | 246 | 0.0 | 2.6 | 0.00 | 0.00 | 0.00 | 88 | 1011.0 |
| 20260506120034 | 75 | 143 | 0.0 | 1.7 | 0.00 | 0.00 | 0.00 | 90 | 1010.9 |
| 20260506115532 | 75 | 218 | 0.0 | 1.7 | 0.00 | 0.00 | 0.00 | 90 | 1010.7 |
| 20260506115030 | 75 | 242 | 0.0 | 0.9 | 0.00 | 0.00 | 0.00 | 90 | 1010.7 |
| 20260506114527 | 75 | 226 | 0.9 | 1.7 | 0.00 | 0.00 | 0.00 | 90 | 1010.5 |
| 20260506114025 | 75 | 227 | 1.7 | 2.6 | 0.00 | 0.00 | 0.00 | 90 | 1010.4 |
| 20260506113523 | 75 | 232 | 1.7 | 3.5 | 0.00 | 0.00 | 0.00 | 90 | 1010.6 |
| 20260506113020 | 75 | 150 | 0.9 | 1.7 | 0.00 | 0.00 | 0.00 | 89 | 1010.5 |
| 20260506112516 | 75 | 189 | 0.0 | 1.7 | 0.00 | 0.00 | 0.00 | 89 | 1010.4 |
| 20260506112014 | 75 | 202 | 1.7 | 1.7 | 0.00 | 0.00 | 0.00 | 89 | 1010.2 |
| 20260506111512 | 75 | 285 | 1.7 | 1.7 | 0.00 | 0.00 | 0.00 | 89 | 1010.1 |
| 20260506111008 | 75 | 182 | 0.9 | 2.6 | 0.00 | 0.00 | 0.00 | 89 | 1010.1 |
| 20260506110506 | 75 | 199 | 1.7 | 2.6 | 0.00 | 0.00 | 0.00 | 89 | 1010.0 |
| 20260506110003 | 75 | 265 | 1.7 | 2.6 | 0.00 | 0.00 | 0.00 | 89 | 1010.0 |
| 20260506105459 | 75 | 191 | 1.7 | 1.7 | 0.00 | 0.00 | 0.00 | 89 | 1009.9 |
| 20260506104956 | 75 | 145 | 0.0 | 4.3 | 0.00 | 0.00 | 0.00 | 89 | 1009.7 |
| 20260506104454 | 75 | 217 | 0.0 | 3.5 | 0.00 | 0.00 | 0.00 | 89 | 1009.8 |
| 20260506103952 | 75 | 220 | 0.0 | 3.5 | 0.00 | 0.00 | 0.00 | 89 | 1009.7 |
| 20260506103449 | 75 | 240 | 1.7 | 1.7 | 0.00 | 0.00 | 0.00 | 89 | 1009.8 |
| 20260506102946 | 75 | 201 | 1.7 | 1.7 | 0.00 | 0.00 | 0.00 | 89 | 1009.7 |
| 20260506102444 | 75 | 194 | 1.7 | 2.6 | 0.00 | 0.00 | 0.00 | 89 | 1009.6 |
| 20260506101941 | 75 | 257 | 0.9 | 1.7 | 0.00 | 0.00 | 0.00 | 89 | 1009.7 |
| 20260506101437 | 75 | 196 | 1.7 | 3.5 | 0.00 | 0.00 | 0.00 | 89 | 1009.3 |
| 20260506100935 | 75 | 202 | 1.7 | 2.6 | 0.00 | 0.00 | 0.00 | 89 | 1009.7 |
| 20260506100433 | 75 | 286 | 0.9 | 4.3 | 0.00 | 0.00 | 0.00 | 89 | 1009.6 |
| 20260506095931 | 75 | 222 | 6.1 | 7.0 | 0.00 | 0.00 | 0.00 | 89 | 1009.6 |
| 20260506095429 | 75 | 214 | 1.7 | 1.7 | 0.00 | 0.00 | 0.00 | 89 | 1009.4 |
| 20260506094925 | 75 | 252 | 0.0 | 2.6 | 0.00 | 0.00 | 0.00 | 89 | 1009.2 |
| 20260506094424 | 75 | 320 | 2.6 | 3.5 | 0.00 | 0.00 | 0.00 | 89 | 1009.5 |
| 20260506093921 | 75 | 337 | 0.0 | 2.6 | 0.00 | 0.00 | 0.00 | 90 | 1009.3 |
| 20260506093419 | 75 | 132 | 0.9 | 3.5 | 0.00 | 0.00 | 0.00 | 90 | 1009.4 |
| 20260506092916 | 75 | 222 | 0.0 | 1.7 | 0.00 | 0.00 | 0.00 | 90 | 1009.3 |
| 20260506092414 | 75 | 219 | 1.7 | 3.5 | 0.00 | 0.00 | 0.00 | 90 | 1009.1 |
| 20260506091910 | 75 | 262 | 0.9 | 2.6 | 0.00 | 0.00 | 0.00 | 90 | 1009.1 |
| 20260506091409 | 75 | 222 | 0.9 | 3.5 | 0.00 | 0.00 | 0.00 | 90 | 1009.2 |
| 20260506090905 | 75 | 261 | 2.6 | 3.5 | 0.00 | 0.00 | 0.00 | 90 | 1009.3 |
| 20260506090403 | 75 | 235 | 1.7 | 4.3 | 0.00 | 0.00 | 0.00 | 90 | 1009.1 |
| 20260506085859 | 75 | 232 | 2.6 | 3.5 | 0.00 | 0.00 | 0.00 | 90 | 1009.0 |
| 20260506085356 | 75 | 206 | 2.6 | 2.6 | 0.00 | 0.00 | 0.00 | 90 | 1009.0 |
| 20260506084852 | 74 | 141 | 1.7 | 4.3 | 0.00 | 0.00 | 0.00 | 90 | 1009.1 |
| 20260506084349 | 74 | 199 | 1.7 | 3.5 | 0.00 | 0.00 | 0.00 | 90 | 1009.3 |
| 20260506083846 | 74 | 218 | 0.0 | 2.6 | 0.00 | 0.00 | 0.00 | 90 | 1009.2 |
| 20260506083344 | 74 | 257 | 1.7 | 5.2 | 0.00 | 0.00 | 0.00 | 90 | 1009.0 |
| 20260506082841 | 74 | 46 | 1.7 | 4.3 | 0.00 | 0.00 | 0.00 | 90 | 1009.2 |
| 20260506082337 | 74 | 258 | 1.7 | 5.2 | 0.00 | 0.00 | 0.00 | 90 | 1008.8 |
| 20260506081833 | 75 | 168 | 0.0 | 5.2 | 0.00 | 0.00 | 0.00 | 90 | 1009.0 |
| 20260506081332 | 75 | 105 | 1.7 | 3.5 | 0.00 | 0.00 | 0.00 | 90 | 1009.0 |
| 20260506080829 | 75 | 202 | 3.5 | 3.5 | 0.00 | 0.00 | 0.00 | 90 | 1008.8 |
| 20260506080325 | 75 | 215 | 1.7 | 3.5 | 0.00 | 0.00 | 0.00 | 90 | 1009.1 |
| 20260506073309 | 75 | 215 | 1.7 | 3.5 | 0.00 | 0.00 | 0.00 | 90 | 1009.1 |
| 20260506072806 | 75 | 230 | 0.9 | 2.6 | 0.00 | 0.00 | 0.00 | 90 | 1009.2 |
| 20260506072305 | 75 | 176 | 1.7 | 5.2 | 0.00 | 0.00 | 0.00 | 90 | 1008.9 |
| 20260506071801 | 75 | 149 | 3.5 | 3.5 | 0.00 | 0.00 | 0.00 | 90 | 1008.7 |
| 20260506071259 | 75 | 198 | 1.7 | 2.6 | 0.00 | 0.00 | 0.00 | 90 | 1009.3 |
| 20260506070756 | 75 | 222 | 0.9 | 3.5 | 0.00 | 0.00 | 0.00 | 90 | 1008.8 |
| 20260506070253 | 75 | 154 | 1.7 | 1.7 | 0.00 | 0.00 | 0.00 | 90 | 1009.1 |
| 20260506062230 | 76 | 145 | 2.6 | 4.3 | 0.00 | 0.00 | 0.00 | 88 | 1010.2 |
| 20260506061726 | 76 | 166 | 1.7 | 1.7 | 0.00 | 0.00 | 0.00 | 88 | 1010.0 |
| 20260506061223 | 76 | 250 | 1.7 | 2.6 | 0.00 | 0.00 | 0.00 | 88 | 1009.9 |
| 20260506060722 | 76 | 245 | 0.9 | 2.6 | 0.00 | 0.00 | 0.00 | 88 | 1009.9 |
| 20260506060218 | 75 | 202 | 2.6 | 2.6 | 0.00 | 0.00 | 0.00 | 89 | 1009.7 |
| 20260506051151 | 75 | 40 | 0.9 | 2.6 | 0.00 | 0.00 | 0.00 | 90 | 1009.7 |
| 20260506050649 | 75 | 183 | 0.0 | 7.0 | 0.00 | 0.00 | 0.00 | 90 | 1009.3 |
| 20260506050146 | 75 | 176 | 0.9 | 3.5 | 0.00 | 0.00 | 0.00 | 90 | 1009.2 |
| 20260506044637 | 75 | 220 | 0.9 | 2.6 | 0.00 | 0.00 | 0.00 | 89 | 1008.9 |
| 20260506044133 | 75 | 219 | 0.0 | 2.6 | 0.00 | 0.00 | 0.00 | 89 | 1008.9 |
| 20260506043630 | 75 | 213 | 2.6 | 2.6 | 0.00 | 0.00 | 0.00 | 89 | 1008.9 |
| 20260506043129 | 75 | 146 | 1.7 | 5.2 | 0.00 | 0.00 | 0.00 | 89 | 1008.6 |
| 20260506042627 | 75 | 241 | 3.5 | 6.1 | 0.00 | 0.00 | 0.00 | 89 | 1008.7 |
| 20260506042125 | 75 | 114 | 1.7 | 2.6 | 0.00 | 0.00 | 0.00 | 88 | 1008.4 |
| 20260506041624 | 76 | 272 | 1.7 | 3.5 | 0.00 | 0.00 | 0.00 | 88 | 1008.4 |
| 20260506041120 | 76 | 121 | 2.6 | 2.6 | 0.00 | 0.00 | 0.00 | 88 | 1008.3 |
| 20260506040618 | 76 | 87 | 1.7 | 3.5 | 0.00 | 0.00 | 0.00 | 88 | 1008.2 |
| 20260506040114 | 76 | 161 | 2.6 | 3.5 | 0.00 | 0.00 | 0.00 | 87 | 1008.3 |
| 20260506035611 | 76 | 156 | 2.6 | 7.0 | 0.00 | 0.00 | 0.00 | 87 | 1008.3 |
| 20260506035107 | 76 | 224 | 4.3 | 4.3 | 0.00 | 0.00 | 0.00 | 87 | 1008.4 |
| 20260506034605 | 76 | 133 | 0.0 | 1.7 | 0.00 | 0.00 | 0.00 | 87 | 1008.2 |
| 20260506034102 | 76 | 241 | 1.7 | 4.3 | 0.00 | 0.00 | 0.00 | 87 | 1008.5 |
| 20260506033559 | 76 | 128 | 3.5 | 3.5 | 0.00 | 0.00 | 0.00 | 86 | 1008.2 |
| 20260506033056 | 77 | 92 | 0.9 | 2.6 | 0.00 | 0.00 | 0.00 | 86 | 1008.3 |
| 20260506032553 | 77 | 141 | 0.9 | 6.1 | 0.00 | 0.00 | 0.00 | 86 | 1008.3 |
| 20260506032050 | 77 | 183 | 0.9 | 3.5 | 0.00 | 0.00 | 0.00 | 86 | 1008.3 |
| 20260506031548 | 77 | 174 | 0.0 | 3.5 | 0.00 | 0.00 | 0.00 | 85 | 1008.5 |
| 20260506031044 | 77 | 134 | 1.7 | 1.7 | 0.00 | 0.00 | 0.00 | 85 | 1008.3 |
| 20260506030542 | 77 | 130 | 2.6 | 3.5 | 0.00 | 0.00 | 0.00 | 84 | 1007.9 |
| 20260506030039 | 77 | 147 | 2.6 | 3.5 | 0.00 | 0.00 | 0.00 | 84 | 1007.7 |
| 20260506025536 | 77 | 180 | 0.9 | 4.3 | 0.00 | 0.00 | 0.00 | 84 | 1008.1 |
| 20260506025032 | 77 | 260 | 1.7 | 1.7 | 0.00 | 0.00 | 0.00 | 83 | 1008.1 |
| 20260506024530 | 77 | 165 | 1.7 | 5.2 | 0.00 | 0.00 | 0.00 | 83 | 1008.2 |
| 20260506024026 | 77 | 194 | 0.0 | 1.7 | 0.00 | 0.00 | 0.00 | 83 | 1008.4 |
| 20260506023522 | 77 | 210 | 0.0 | 1.7 | 0.00 | 0.00 | 0.00 | 83 | 1008.0 |
| 20260506023020 | 77 | 171 | 0.0 | 1.7 | 0.00 | 0.00 | 0.00 | 82 | 1008.2 |
| 20260506022517 | 77 | 255 | 0.0 | 1.7 | 0.00 | 0.00 | 0.00 | 82 | 1008.0 |
| 20260506022015 | 77 | 119 | 0.0 | 1.7 | 0.00 | 0.00 | 0.00 | 82 | 1008.0 |
| 20260506021512 | 77 | 180 | 0.9 | 1.7 | 0.00 | 0.00 | 0.00 | 82 | 1008.0 |
| 20260506021009 | 77 | 180 | 0.9 | 2.6 | 0.00 | 0.00 | 0.00 | 82 | 1007.9 |
| 20260506020507 | 77 | 142 | 0.9 | 1.7 | 0.00 | 0.00 | 0.00 | 82 | 1007.9 |
| 20260506020004 | 77 | 277 | 0.0 | 1.7 | 0.00 | 0.00 | 0.00 | 82 | 1007.6 |
| 20260506015501 | 78 | 242 | 0.0 | 1.7 | 0.00 | 0.00 | 0.00 | 82 | 1007.4 |
| 20260506014957 | 78 | 150 | 2.6 | 2.6 | 0.00 | 0.00 | 0.00 | 81 | 1007.5 |
| 20260506014455 | 78 | 176 | 1.7 | 1.7 | 0.00 | 0.00 | 0.00 | 81 | 1007.5 |
| 20260506013951 | 78 | 174 | 0.9 | 2.6 | 0.00 | 0.00 | 0.00 | 80 | 1007.2 |
| 20260506013449 | 78 | 107 | 0.0 | 0.9 | 0.00 | 0.00 | 0.00 | 79 | 1007.3 |
| 20260506012945 | 79 | 126 | 0.0 | 0.0 | 0.00 | 0.00 | 0.00 | 79 | 1007.3 |
| 20260506012441 | 79 | 149 | 0.9 | 1.7 | 0.00 | 0.00 | 0.00 | 78 | 1007.3 |
| 20260506011938 | 79 | 83 | 1.7 | 1.7 | 0.00 | 0.00 | 0.00 | 78 | 1007.4 |
| 20260506011436 | 79 | 89 | 0.0 | 1.7 | 0.00 | 0.00 | 0.00 | 77 | 1007.4 |
| 20260506010932 | 80 | 210 | 0.9 | 0.9 | 0.00 | 0.00 | 0.00 | 77 | 1007.3 |
| 20260506010432 | 80 | 241 | 0.9 | 0.9 | 0.00 | 0.00 | 0.00 | 77 | 1007.0 |
| 20260506005927 | 80 | 142 | 0.0 | 2.6 | 0.00 | 0.00 | 0.00 | 76 | 1006.8 |
| 20260506005425 | 80 | 232 | 2.6 | 2.6 | 0.00 | 0.00 | 0.00 | 76 | 1006.7 |
| 20260506004920 | 80 | 154 | 0.9 | 1.7 | 0.00 | 0.00 | 0.00 | 76 | 1006.7 |
| 20260506004419 | 81 | 185 | 2.6 | 5.2 | 0.00 | 0.00 | 0.00 | 75 | 1006.7 |
| 20260506003914 | 81 | 240 | 0.0 | 0.9 | 0.00 | 0.00 | 0.00 | 75 | 1006.6 |
| 20260506003411 | 81 | 237 | 0.0 | 4.3 | 0.00 | 0.00 | 0.00 | 74 | 1006.4 |
| 20260506002908 | 81 | 168 | 0.9 | 2.6 | 0.00 | 0.00 | 0.00 | 74 | 1006.6 |
| 20260506002403 | 82 | 184 | 0.9 | 3.5 | 0.00 | 0.00 | 0.00 | 73 | 1006.4 |
| 20260506001859 | 82 | 168 | 0.0 | 1.7 | 0.00 | 0.00 | 0.00 | 73 | 1006.4 |
| 20260506001356 | 82 | 190 | 1.7 | 3.5 | 0.00 | 0.00 | 0.00 | 72 | 1006.6 |
| 20260506000853 | 83 | 247 | 1.7 | 3.5 | 0.00 | 0.00 | 0.00 | 71 | 1006.5 |
| 20260506000353 | 83 | 145 | 1.7 | 2.6 | 0.00 | 0.00 | 0.00 | 70 | 1006.7 |
| 20260505235847 | 84 | 231 | 0.9 | 4.3 | 0.00 | 0.00 | 0.00 | 69 | 1006.5 |
| 20260505235345 | 84 | 195 | 0.0 | 0.9 | 0.00 | 0.00 | 0.00 | 69 | 1006.8 |
| 20260505234842 | 84 | 209 | 0.0 | 2.6 | 0.00 | 0.00 | 0.00 | 68 | 1006.7 |
| 20260505234340 | 84 | 185 | 0.9 | 3.5 | 0.00 | 0.00 | 0.00 | 68 | 1006.8 |
| 20260505233836 | 84 | 210 | 2.6 | 3.5 | 0.00 | 0.00 | 0.00 | 68 | 1006.5 |
| 20260505233334 | 84 | 126 | 3.5 | 7.0 | 0.00 | 0.00 | 0.00 | 67 | 1006.6 |
| 20260505232831 | 85 | 208 | 1.7 | 3.5 | 0.00 | 0.00 | 0.00 | 66 | 1006.6 |
| 20260505232329 | 85 | 145 | 1.7 | 4.3 | 0.00 | 0.00 | 0.00 | 66 | 1006.4 |
| 20260505231825 | 86 | 169 | 3.5 | 6.1 | 0.00 | 0.00 | 0.00 | 65 | 1006.3 |
| 20260505231324 | 85 | 278 | 0.0 | 4.3 | 0.00 | 0.00 | 0.00 | 66 | 1006.5 |
| 20260505230822 | 86 | 260 | 0.9 | 3.5 | 0.00 | 0.00 | 0.00 | 65 | 1006.3 |
| 20260505230318 | 85 | 276 | 1.7 | 2.6 | 0.00 | 0.00 | 0.00 | 66 | 1006.3 |
| 20260505225815 | 85 | 179 | 1.7 | 4.3 | 0.00 | 0.00 | 0.00 | 66 | 1006.3 |
| 20260505225312 | 86 | 129 | 5.2 | 5.2 | 0.00 | 0.00 | 0.00 | 63 | 1006.2 |
| 20260505224807 | 87 | 239 | 2.6 | 3.5 | 0.00 | 0.00 | 0.00 | 63 | 1006.2 |
| 20260505224305 | 87 | 113 | 1.7 | 7.0 | 0.00 | 0.00 | 0.00 | 63 | 1006.1 |
| 20260505223802 | 87 | 144 | 3.5 | 3.5 | 0.00 | 0.00 | 0.00 | 62 | 1006.1 |
| 20260505223259 | 87 | 304 | 0.0 | 3.5 | 0.00 | 0.00 | 0.00 | 63 | 1006.3 |
| 20260505222755 | 87 | 214 | 1.7 | 3.5 | 0.00 | 0.00 | 0.00 | 62 | 1006.2 |
| 20260505222251 | 87 | 207 | 2.6 | 6.1 | 0.00 | 0.00 | 0.00 | 62 | 1006.3 |
| 20260505221748 | 86 | 264 | 5.2 | 7.0 | 0.00 | 0.00 | 0.00 | 61 | 1006.5 |
| 20260505221245 | 86 | 210 | 3.5 | 6.1 | 0.00 | 0.00 | 0.00 | 62 | 1006.4 |
| 20260505220741 | 86 | 217 | 5.2 | 7.8 | 0.00 | 0.00 | 0.00 | 62 | 1006.3 |
| 20260505220239 | 86 | 207 | 3.5 | 11.3 | 0.00 | 0.00 | 0.00 | 62 | 1006.5 |
| 20260505215737 | 88 | 224 | 4.3 | 5.2 | 0.00 | 0.00 | 0.00 | 62 | 1006.5 |
| 20260505215235 | 87 | 120 | 3.5 | 4.3 | 0.00 | 0.00 | 0.00 | 62 | 1006.4 |
| 20260505214732 | 86 | 217 | 3.5 | 4.3 | 0.00 | 0.00 | 0.00 | 63 | 1006.5 |
| 20260505214229 | 86 | 122 | 4.3 | 8.7 | 0.00 | 0.00 | 0.00 | 63 | 1006.6 |
| 20260505213727 | 87 | 212 | 2.6 | 6.1 | 0.00 | 0.00 | 0.00 | 62 | 1006.7 |
| 20260505213224 | 87 | 211 | 2.6 | 6.1 | 0.00 | 0.00 | 0.00 | 63 | 1006.6 |
| 20260505212720 | 86 | 272 | 2.6 | 4.3 | 0.00 | 0.00 | 0.00 | 63 | 1006.6 |
| 20260505212217 | 86 | 223 | 3.5 | 5.2 | 0.00 | 0.00 | 0.00 | 64 | 1006.7 |
| 20260505211714 | 85 | 216 | 1.7 | 4.3 | 0.00 | 0.00 | 0.00 | 65 | 1006.7 |
| 20260505211212 | 85 | 213 | 4.3 | 11.3 | 0.00 | 0.00 | 0.00 | 65 | 1006.8 |
| 20260505210708 | 84 | 224 | 1.7 | 5.2 | 0.00 | 0.00 | 0.00 | 67 | 1006.6 |
| 20260505210205 | 84 | 221 | 6.1 | 10.4 | 0.00 | 0.00 | 0.00 | 67 | 1006.8 |
| 20260505205702 | 84 | 150 | 1.7 | 5.2 | 0.00 | 0.00 | 0.00 | 69 | 1006.7 |
| 20260505205200 | 84 | 201 | 3.5 | 5.2 | 0.00 | 0.00 | 0.00 | 67 | 1007.0 |
| 20260505204656 | 84 | 210 | 0.9 | 8.7 | 0.00 | 0.00 | 0.00 | 68 | 1007.0 |
| 20260505204155 | 84 | 211 | 0.9 | 6.1 | 0.00 | 0.00 | 0.00 | 68 | 1007.1 |
| 20260505203651 | 84 | 188 | 0.9 | 3.5 | 0.00 | 0.00 | 0.00 | 69 | 1007.3 |
| 20260505203148 | 84 | 156 | 3.5 | 7.0 | 0.00 | 0.00 | 0.00 | 69 | 1007.1 |
| 20260505202644 | 83 | 259 | 1.7 | 2.6 | 0.00 | 0.00 | 0.00 | 68 | 1007.2 |
| 20260505202140 | 83 | 264 | 1.7 | 7.0 | 0.00 | 0.00 | 0.00 | 68 | 1007.2 |
| 20260505201637 | 84 | 179 | 1.7 | 4.3 | 0.00 | 0.00 | 0.00 | 67 | 1007.3 |
| 20260505201135 | 83 | 252 | 3.5 | 6.1 | 0.00 | 0.00 | 0.00 | 68 | 1007.1 |
| 20260505200633 | 83 | 204 | 3.5 | 3.5 | 0.00 | 0.00 | 0.00 | 69 | 1007.3 |
| 20260505200129 | 83 | 164 | 1.7 | 4.3 | 0.00 | 0.00 | 0.00 | 70 | 1007.3 |
| 20260505195625 | 83 | 213 | 3.5 | 3.5 | 0.00 | 0.00 | 0.00 | 67 | 1007.4 |
| 20260505195123 | 83 | 215 | 5.2 | 7.0 | 0.00 | 0.00 | 0.00 | 67 | 1007.3 |
| 20260505194620 | 83 | 209 | 3.5 | 5.2 | 0.00 | 0.00 | 0.00 | 68 | 1007.2 |
| 20260505194116 | 84 | 154 | 4.3 | 7.0 | 0.00 | 0.00 | 0.00 | 67 | 1007.3 |
| 20260505193613 | 85 | 133 | 1.7 | 5.2 | 0.00 | 0.00 | 0.00 | 65 | 1007.2 |
| 20260505193110 | 84 | 208 | 2.6 | 4.3 | 0.00 | 0.00 | 0.00 | 67 | 1007.5 |
| 20260505192609 | 83 | 103 | 3.5 | 4.3 | 0.00 | 0.00 | 0.00 | 68 | 1007.7 |
| 20260505192106 | 83 | 229 | 5.2 | 7.8 | 0.00 | 0.00 | 0.00 | 68 | 1007.6 |
| 20260505191604 | 82 | 211 | 7.0 | 9.6 | 0.00 | 0.00 | 0.00 | 69 | 1007.8 |
| 20260505191102 | 83 | 166 | 3.5 | 7.0 | 0.00 | 0.00 | 0.00 | 67 | 1007.9 |
| 20260505190602 | 82 | 209 | 4.3 | 10.4 | 0.00 | 0.00 | 0.00 | 69 | 1007.9 |
| 20260505190058 | 81 | 160 | 4.3 | 9.6 | 0.00 | 0.00 | 0.00 | 70 | 1007.9 |
| 20260505185555 | 82 | 293 | 0.0 | 5.2 | 0.00 | 0.00 | 0.00 | 70 | 1007.9 |
| 20260505185051 | 82 | 260 | 6.1 | 13.9 | 0.00 | 0.00 | 0.00 | 68 | 1007.8 |
| 20260505184548 | 81 | 229 | 3.5 | 7.8 | 0.00 | 0.00 | 0.00 | 69 | 1007.9 |
| 20260505184045 | 81 | 213 | 3.5 | 3.5 | 0.00 | 0.00 | 0.00 | 71 | 1008.1 |
| 20260505183541 | 82 | 207 | 4.3 | 6.1 | 0.00 | 0.00 | 0.00 | 70 | 1008.2 |
| 20260505183039 | 82 | 199 | 6.1 | 10.4 | 0.00 | 0.00 | 0.00 | 69 | 1007.9 |
| 20260505182535 | 82 | 264 | 1.7 | 6.1 | 0.00 | 0.00 | 0.00 | 69 | 1007.9 |
| 20260505182032 | 81 | 237 | 4.3 | 9.6 | 0.00 | 0.00 | 0.00 | 70 | 1008.2 |
| 20260505181528 | 82 | 268 | 1.7 | 11.3 | 0.00 | 0.00 | 0.00 | 70 | 1008.2 |
| 20260505181026 | 81 | 161 | 2.6 | 7.8 | 0.00 | 0.00 | 0.00 | 71 | 1008.0 |
| 20260505180521 | 81 | 179 | 3.5 | 12.2 | 0.00 | 0.00 | 0.00 | 71 | 1008.0 |
| 20260505180021 | 81 | 238 | 3.5 | 14.8 | 0.00 | 0.00 | 0.00 | 69 | 1007.9 |
| 20260505175515 | 81 | 267 | 4.3 | 5.2 | 0.00 | 0.00 | 0.00 | 70 | 1008.0 |
| 20260505175012 | 81 | 274 | 2.6 | 8.7 | 0.00 | 0.00 | 0.00 | 70 | 1008.0 |
| 20260505174509 | 80 | 99 | 3.5 | 8.7 | 0.00 | 0.00 | 0.00 | 72 | 1008.1 |
| 20260505174005 | 79 | 217 | 13.0 | 13.0 | 0.00 | 0.00 | 0.00 | 72 | 1008.3 |
| 20260505173502 | 79 | 157 | 5.2 | 13.9 | 0.00 | 0.00 | 0.00 | 73 | 1008.1 |
| 20260505172958 | 79 | 225 | 3.5 | 5.2 | 0.00 | 0.00 | 0.00 | 74 | 1008.2 |
| 20260505172457 | 78 | 260 | 1.7 | 5.2 | 0.00 | 0.00 | 0.00 | 75 | 1008.1 |
| 20260505171956 | 79 | 221 | 3.5 | 11.3 | 0.00 | 0.00 | 0.00 | 74 | 1008.2 |
| 20260505171453 | 78 | 249 | 2.6 | 4.3 | 0.00 | 0.00 | 0.00 | 76 | 1008.2 |